Time,TemperatureF,DewpointF,PressureIn,WindDirection,WindDirectionDegrees,WindSpeedMPH,WindSpeedGustMPH,Humidity,HourlyPrecipIn,Conditions,Clouds,dailyrainin,SoftwareType,DateUTC
2013-11-08 00:06:00,40.1,32.5,29.71,West,270,1.1,4.3,74,0.00,,,0.00,WUHU216HW,2013-11-08 07:06:00,
2013-11-08 00:16:00,40.0,32.0,29.71,West,270,2.9,4.3,73,0.00,,,0.00,WUHU216HW,2013-11-08 07:16:00,
2013-11-08 00:26:00,40.0,32.3,29.71,SSW,203,0.4,2.7,74,0.00,,,0.00,WUHU216HW,2013-11-08 07:26:00,
2013-11-08 00:36:00,39.8,32.1,29.71,North,0,1.1,3.4,74,0.00,,,0.00,WUHU216HW,2013-11-08 07:36:00,
2013-11-08 00:46:00,39.6,32.0,29.71,West,270,0.4,2.5,74,0.00,,,0.00,WUHU216HW,2013-11-08 07:46:00,
2013-11-08 00:56:00,39.2,31.6,29.71,WNW,293,0.2,3.4,74,0.00,,,0.00,WUHU216HW,2013-11-08 07:56:00,
2013-11-08 01:06:00,39.4,31.8,29.72,West,270,0.2,2.5,74,0.00,,,0.00,WUHU216HW,2013-11-08 08:06:00,
2013-11-08 01:16:00,39.4,31.8,29.72,West,270,0.4,4.5,74,0.00,,,0.00,WUHU216HW,2013-11-08 08:16:00,
2013-11-08 01:26:00,40.0,32.3,29.72,WNW,293,2.9,8.1,74,0.00,,,0.00,WUHU216HW,2013-11-08 08:26:00,
2013-11-08 01:37:00,40.3,32.3,29.72,WSW,248,6.3,7.6,73,0.00,,,0.00,WUHU216HW,2013-11-08 08:37:00,
2013-11-08 01:47:00,40.5,32.5,29.72,SW,225,5.6,7.4,73,0.00,,,0.00,WUHU216HW,2013-11-08 08:47:00,
2013-11-08 01:57:00,40.3,32.3,29.72,West,270,0.7,4.3,73,0.00,,,0.00,WUHU216HW,2013-11-08 08:57:00,
2013-11-08 02:07:00,40.1,32.5,29.72,South,180,0.0,8.7,74,0.00,,,0.00,WUHU216HW,2013-11-08 09:07:00,
2013-11-08 02:17:00,40.0,32.3,29.73,SW,225,3.6,4.0,74,0.00,,,0.00,WUHU216HW,2013-11-08 09:17:00,
2013-11-08 02:27:00,39.6,32.0,29.73,SSE,158,2.5,4.5,74,0.00,,,0.00,WUHU216HW,2013-11-08 09:27:00,
2013-11-08 02:37:00,39.6,32.0,29.73,South,180,2.9,6.7,74,0.00,,,0.00,WUHU216HW,2013-11-08 09:37:00,
2013-11-08 02:47:00,39.6,32.3,29.73,South,180,7.4,7.4,75,0.00,,,0.00,WUHU216HW,2013-11-08 09:47:00,
2013-11-08 02:57:00,39.4,32.1,29.74,WSW,248,3.1,4.5,75,0.00,,,0.00,WUHU216HW,2013-11-08 09:57:00,
2013-11-08 03:07:00,39.4,32.1,29.74,SW,225,1.6,3.4,75,0.00,,,0.00,WUHU216HW,2013-11-08 10:07:00,
2013-11-08 03:17:00,39.2,32.0,29.74,SW,225,2.0,2.5,75,0.00,,,0.00,WUHU216HW,2013-11-08 10:17:00,
2013-11-08 03:27:00,39.2,32.3,29.75,WSW,248,1.8,2.9,76,0.00,,,0.00,WUHU216HW,2013-11-08 10:27:00,
2013-11-08 03:37:00,39.2,32.3,29.75,WSW,248,4.3,4.9,76,0.00,,,0.00,WUHU216HW,2013-11-08 10:37:00,
2013-11-08 03:47:00,39.2,32.3,29.75,WSW,248,4.7,5.8,76,0.00,,,0.00,WUHU216HW,2013-11-08 10:47:00,
2013-11-08 03:57:00,40.0,32.7,29.75,West,270,2.9,7.6,75,0.00,,,0.00,WUHU216HW,2013-11-08 10:57:00,
2013-11-08 04:07:00,40.0,32.7,29.75,SW,225,6.9,6.9,75,0.00,,,0.00,WUHU216HW,2013-11-08 11:07:00,
2013-11-08 04:17:00,40.0,32.3,29.75,SW,225,8.3,8.3,74,0.00,,,0.00,WUHU216HW,2013-11-08 11:17:00,
2013-11-08 04:27:00,40.0,32.7,29.75,WSW,248,4.0,5.8,75,0.00,,,0.00,WUHU216HW,2013-11-08 11:27:00,
2013-11-08 04:37:00,39.6,32.3,29.76,SW,225,1.8,3.8,75,0.00,,,0.00,WUHU216HW,2013-11-08 11:37:00,
2013-11-08 04:47:00,39.8,32.5,29.76,West,270,1.8,3.6,75,0.00,,,0.00,WUHU216HW,2013-11-08 11:47:00,
2013-11-08 04:57:00,40.0,32.7,29.76,SW,225,4.0,4.9,75,0.00,,,0.00,WUHU216HW,2013-11-08 11:57:00,
2013-11-08 05:07:00,40.0,32.3,29.76,South,180,2.5,4.3,74,0.00,,,0.00,WUHU216HW,2013-11-08 12:07:00,
2013-11-08 05:17:00,40.1,32.5,29.76,West,270,1.8,6.7,74,0.00,,,0.00,WUHU216HW,2013-11-08 12:17:00,
2013-11-08 05:27:00,40.0,32.3,29.76,SW,225,1.8,4.9,74,0.00,,,0.00,WUHU216HW,2013-11-08 12:27:00,
2013-11-08 05:37:00,40.0,32.7,29.77,SW,225,3.6,3.6,75,0.00,,,0.00,WUHU216HW,2013-11-08 12:37:00,
2013-11-08 05:47:00,39.6,32.3,29.77,SSE,158,2.0,2.9,75,0.00,,,0.00,WUHU216HW,2013-11-08 12:47:00,
2013-11-08 05:57:00,39.4,32.5,29.77,WSW,248,2.7,3.6,76,0.00,,,0.00,WUHU216HW,2013-11-08 12:57:00,
2013-11-08 06:07:00,39.4,32.5,29.77,WSW,248,0.7,5.1,76,0.00,,,0.00,WUHU216HW,2013-11-08 13:07:00,
2013-11-08 06:17:00,39.2,32.3,29.78,WSW,248,1.8,2.5,76,0.00,,,0.00,WUHU216HW,2013-11-08 13:17:00,
2013-11-08 06:27:00,39.2,32.7,29.77,SW,225,0.4,4.9,77,0.00,,,0.00,WUHU216HW,2013-11-08 13:27:00,
2013-11-08 06:37:00,39.2,32.7,29.78,WSW,248,1.8,3.1,77,0.00,,,0.00,WUHU216HW,2013-11-08 13:37:00,
2013-11-08 06:47:00,39.2,32.7,29.78,South,180,1.8,2.5,77,0.00,,,0.00,WUHU216HW,2013-11-08 13:47:00,
2013-11-08 06:57:00,39.2,32.7,29.78,SW,225,1.6,4.0,77,0.00,,,0.00,WUHU216HW,2013-11-08 13:57:00,
2013-11-08 07:07:00,39.4,32.8,29.78,WSW,248,1.3,2.9,77,0.00,,,0.00,WUHU216HW,2013-11-08 14:07:00,
2013-11-08 07:17:00,39.2,32.7,29.78,SSE,158,0.9,2.2,77,0.00,,,0.00,WUHU216HW,2013-11-08 14:17:00,
2013-11-08 07:27:00,39.2,32.7,29.78,SSW,203,0.2,2.9,77,0.00,,,0.00,WUHU216HW,2013-11-08 14:27:00,
2013-11-08 07:37:00,39.2,32.7,29.78,WSW,248,0.4,2.7,77,0.00,,,0.00,WUHU216HW,2013-11-08 14:37:00,
2013-11-08 07:47:00,39.4,32.8,29.79,SW,225,1.6,2.2,77,0.00,,,0.00,WUHU216HW,2013-11-08 14:47:00,
2013-11-08 07:57:00,39.4,32.8,29.79,SW,225,1.1,1.8,77,0.00,,,0.00,WUHU216HW,2013-11-08 14:57:00,
2013-11-08 08:07:00,39.6,32.9,29.79,SSW,203,1.1,2.9,77,0.00,,,0.00,WUHU216HW,2013-11-08 15:07:00,
2013-11-08 08:17:00,39.8,33.1,29.79,WSW,248,0.9,2.0,77,0.00,,,0.00,WUHU216HW,2013-11-08 15:17:00,
2013-11-08 08:27:00,40.0,33.3,29.79,SSW,203,0.0,2.7,77,0.00,,,0.00,WUHU216HW,2013-11-08 15:27:00,
2013-11-08 08:37:00,40.0,33.3,29.79,SSE,158,5.6,5.6,77,0.00,,,0.00,WUHU216HW,2013-11-08 15:37:00,
2013-11-08 08:47:00,40.1,33.5,29.79,South,180,1.3,5.8,77,0.00,,,0.00,WUHU216HW,2013-11-08 15:47:00,
2013-11-08 08:57:00,40.5,33.9,29.80,West,270,1.8,3.4,77,0.00,,,0.00,WUHU216HW,2013-11-08 15:57:00,
2013-11-08 09:07:00,40.7,33.9,29.80,SSE,158,0.9,2.2,77,0.00,,,0.00,WUHU216HW,2013-11-08 16:07:00,
2013-11-08 09:17:00,40.7,33.9,29.80,WNW,293,0.9,1.3,77,0.00,,,0.00,WUHU216HW,2013-11-08 16:17:00,
2013-11-08 09:28:00,41.0,34.3,29.80,SSW,203,0.4,1.1,77,0.00,,,0.00,WUHU216HW,2013-11-08 16:28:00,
2013-11-08 09:38:00,41.4,34.7,29.80,SSW,203,0.2,1.1,77,0.00,,,0.00,WUHU216HW,2013-11-08 16:38:00,
2013-11-08 09:48:00,42.1,35.1,29.81,WSW,248,0.9,2.7,76,0.00,,,0.00,WUHU216HW,2013-11-08 16:48:00,
2013-11-08 09:58:00,42.5,35.1,29.80,SSE,158,3.4,4.3,75,0.00,,,0.00,WUHU216HW,2013-11-08 16:58:00,
2013-11-08 10:08:00,43.0,35.3,29.80,NNE,23,0.9,5.8,74,0.00,,,0.00,WUHU216HW,2013-11-08 17:08:00,
2013-11-08 10:18:00,43.2,35.5,29.80,SSE,158,3.8,3.8,74,0.00,,,0.00,WUHU216HW,2013-11-08 17:18:00,
2013-11-08 10:28:00,43.6,35.8,29.80,SSW,203,1.3,5.1,74,0.00,,,0.00,WUHU216HW,2013-11-08 17:28:00,
2013-11-08 10:38:00,43.9,36.2,29.81,SSW,203,1.8,4.0,74,0.00,,,0.00,WUHU216HW,2013-11-08 17:38:00,
2013-11-08 10:48:00,43.9,35.8,29.81,SSW,203,3.1,5.4,73,0.00,,,0.00,WUHU216HW,2013-11-08 17:48:00,
2013-11-08 10:58:00,44.1,35.6,29.81,SSE,158,4.3,6.3,72,0.00,,,0.00,WUHU216HW,2013-11-08 17:58:00,
2013-11-08 11:08:00,44.3,35.8,29.81,South,180,3.4,7.6,72,0.00,,,0.00,WUHU216HW,2013-11-08 18:08:00,
2013-11-08 11:18:00,44.3,35.8,29.82,ESE,113,4.5,4.7,72,0.00,,,0.00,WUHU216HW,2013-11-08 18:18:00,
2013-11-08 11:28:00,44.3,35.8,29.82,SSE,158,6.3,6.3,72,0.00,,,0.00,WUHU216HW,2013-11-08 18:28:00,
2013-11-08 11:38:00,44.3,35.8,29.83,SSE,158,4.0,5.8,72,0.00,,,0.00,WUHU216HW,2013-11-08 18:38:00,
2013-11-08 11:48:00,44.1,35.6,29.82,SSE,158,2.2,6.5,72,0.00,,,0.00,WUHU216HW,2013-11-08 18:48:00,
2013-11-08 11:58:00,44.1,35.6,29.82,SW,225,2.9,3.4,72,0.00,,,0.00,WUHU216HW,2013-11-08 18:58:00,
2013-11-08 12:08:00,44.3,35.8,29.83,SSW,203,0.9,5.4,72,0.00,,,0.00,WUHU216HW,2013-11-08 19:08:00,
2013-11-08 12:18:00,44.3,35.8,29.83,SW,225,4.9,6.3,72,0.00,,,0.00,WUHU216HW,2013-11-08 19:18:00,
2013-11-08 12:28:00,44.1,36.0,29.83,SW,225,0.0,4.0,73,0.00,,,0.00,WUHU216HW,2013-11-08 19:28:00,
2013-11-08 12:38:00,44.1,36.0,29.83,SE,135,2.2,8.1,73,0.00,,,0.00,WUHU216HW,2013-11-08 19:38:00,
2013-11-08 12:48:00,44.3,36.2,29.83,WSW,248,4.3,6.3,73,0.00,,,0.00,WUHU216HW,2013-11-08 19:48:00,
2013-11-08 12:58:00,44.3,35.8,29.83,WSW,248,2.7,7.2,72,0.00,,,0.00,WUHU216HW,2013-11-08 19:58:00,
2013-11-08 13:08:00,44.5,36.0,29.83,SW,225,2.0,6.3,72,0.00,,,0.00,WUHU216HW,2013-11-08 20:08:00,
2013-11-08 13:18:00,44.8,36.4,29.82,SSE,158,5.4,6.0,72,0.00,,,0.00,WUHU216HW,2013-11-08 20:18:00,
2013-11-08 13:28:00,45.0,36.6,29.83,South,180,1.1,5.6,72,0.00,,,0.00,WUHU216HW,2013-11-08 20:28:00,
2013-11-08 13:38:00,45.0,36.6,29.83,SE,135,1.1,5.1,72,0.00,,,0.00,WUHU216HW,2013-11-08 20:38:00,
2013-11-08 13:48:00,45.5,36.0,29.83,WSW,248,4.0,10.5,69,0.00,,,0.00,WUHU216HW,2013-11-08 20:48:00,
2013-11-08 13:58:00,46.1,36.1,29.83,WSW,248,2.9,5.4,68,0.00,,,0.00,WUHU216HW,2013-11-08 20:58:00,
2013-11-08 14:08:00,46.6,35.5,29.83,SW,225,8.5,8.5,65,0.00,,,0.00,WUHU216HW,2013-11-08 21:08:00,
2013-11-08 14:18:00,46.8,35.7,29.83,SW,225,2.7,8.9,65,0.00,,,0.00,WUHU216HW,2013-11-08 21:18:00,
2013-11-08 14:28:00,47.2,35.6,29.83,SW,225,5.4,9.4,64,0.00,,,0.00,WUHU216HW,2013-11-08 21:28:00,
2013-11-08 14:38:00,47.5,35.2,29.84,SW,225,6.9,6.9,62,0.00,,,0.00,WUHU216HW,2013-11-08 21:38:00,
2013-11-08 14:48:00,47.2,34.4,29.84,WNW,293,10.1,10.1,61,0.00,,,0.00,WUHU216HW,2013-11-08 21:48:00,
2013-11-08 14:58:00,47.2,34.8,29.85,SW,225,9.6,9.6,62,0.00,,,0.00,WUHU216HW,2013-11-08 21:58:00,
2013-11-08 15:08:00,47.0,34.2,29.86,West,270,5.4,6.3,61,0.00,,,0.00,WUHU216HW,2013-11-08 22:08:00,
2013-11-08 15:18:00,46.8,34.5,29.86,SW,225,4.5,5.6,62,0.00,,,0.00,WUHU216HW,2013-11-08 22:18:00,
2013-11-08 15:28:00,45.9,32.4,29.87,West,270,6.7,10.5,59,0.00,,,0.00,WUHU216HW,2013-11-08 22:28:00,
2013-11-08 15:38:00,45.2,32.6,29.87,WSW,248,2.5,7.4,61,0.00,,,0.00,WUHU216HW,2013-11-08 22:38:00,
2013-11-08 15:48:00,44.6,32.4,29.87,SW,225,1.8,7.4,62,0.00,,,0.00,WUHU216HW,2013-11-08 22:48:00,
2013-11-08 15:58:00,43.7,32.3,29.88,WSW,248,6.3,10.7,64,0.00,,,0.00,WUHU216HW,2013-11-08 22:58:00,
2013-11-08 16:08:00,42.8,32.2,29.88,SW,225,8.7,12.3,66,0.00,,,0.00,WUHU216HW,2013-11-08 23:08:00,
2013-11-08 16:18:00,42.1,32.0,29.89,WSW,248,11.4,11.4,67,0.00,,,0.00,WUHU216HW,2013-11-08 23:18:00,
2013-11-08 16:28:00,42.3,31.8,29.89,WSW,248,3.1,7.6,66,0.00,,,0.00,WUHU216HW,2013-11-08 23:28:00,
2013-11-08 16:38:00,42.5,31.2,29.89,SW,225,2.5,6.0,64,0.00,,,0.00,WUHU216HW,2013-11-08 23:38:00,
2013-11-08 16:48:00,42.5,31.2,29.89,NW,315,1.6,6.0,64,0.00,,,0.00,WUHU216HW,2013-11-08 23:48:00,
2013-11-08 16:59:00,42.3,30.6,29.89,WNW,293,2.5,5.8,63,0.00,,,0.00,WUHU216HW,2013-11-08 23:59:00,
2013-11-08 17:09:00,42.3,29.8,29.89,NW,315,0.2,4.7,61,0.00,,,0.00,WUHU216HW,2013-11-09 00:09:00,
2013-11-08 17:19:00,42.3,30.6,29.89,SSW,203,0.9,1.8,63,0.00,,,0.00,WUHU216HW,2013-11-09 00:19:00,
2013-11-08 17:29:00,42.1,30.4,29.89,West,270,1.8,4.3,63,0.00,,,0.00,WUHU216HW,2013-11-09 00:29:00,
2013-11-08 17:39:00,41.9,30.3,29.90,WSW,248,3.4,4.7,63,0.00,,,0.00,WUHU216HW,2013-11-09 00:39:00,
2013-11-08 17:49:00,42.1,30.4,29.90,SW,225,3.1,3.1,63,0.00,,,0.00,WUHU216HW,2013-11-09 00:49:00,
2013-11-08 17:59:00,42.1,30.0,29.90,WSW,248,3.4,9.4,62,0.00,,,0.00,WUHU216HW,2013-11-09 00:59:00,
2013-11-08 18:09:00,42.1,29.6,29.91,NW,315,4.5,6.5,61,0.00,,,0.00,WUHU216HW,2013-11-09 01:09:00,
2013-11-08 18:19:00,42.1,29.3,29.91,West,270,4.9,8.5,60,0.00,,,0.00,WUHU216HW,2013-11-09 01:19:00,
2013-11-08 18:29:00,42.1,29.3,29.91,WNW,293,3.4,6.9,60,0.00,,,0.00,WUHU216HW,2013-11-09 01:29:00,
2013-11-08 18:39:00,41.9,29.1,29.92,West,270,2.7,8.5,60,0.00,,,0.00,WUHU216HW,2013-11-09 01:39:00,
2013-11-08 18:49:00,41.8,28.9,29.91,NNW,338,5.4,5.4,60,0.00,,,0.00,WUHU216HW,2013-11-09 01:49:00,
2013-11-08 18:59:00,41.8,28.4,29.92,SW,225,7.6,7.6,59,0.00,,,0.00,WUHU216HW,2013-11-09 01:59:00,
2013-11-08 19:09:00,41.6,28.7,29.92,NNW,338,0.4,4.7,60,0.00,,,0.00,WUHU216HW,2013-11-09 02:09:00,
2013-11-08 19:19:00,41.8,28.9,29.93,North,0,0.4,1.1,60,0.00,,,0.00,WUHU216HW,2013-11-09 02:19:00,
2013-11-08 19:29:00,41.9,29.4,29.93,ENE,68,0.7,1.8,61,0.00,,,0.00,WUHU216HW,2013-11-09 02:29:00,
2013-11-08 19:39:00,41.9,29.4,29.93,West,270,0.2,1.1,61,0.00,,,0.00,WUHU216HW,2013-11-09 02:39:00,
2013-11-08 19:49:00,42.1,30.0,29.93,WSW,248,1.1,1.1,62,0.00,,,0.00,WUHU216HW,2013-11-09 02:49:00,
2013-11-08 19:59:00,42.1,29.6,29.93,West,270,0.9,2.0,61,0.00,,,0.00,WUHU216HW,2013-11-09 02:59:00,
2013-11-08 20:09:00,41.9,29.4,29.93,WSW,248,0.0,1.6,61,0.00,,,0.00,WUHU216HW,2013-11-09 03:09:00,
2013-11-08 20:19:00,41.9,29.9,29.93,SE,135,0.9,0.9,62,0.00,,,0.00,WUHU216HW,2013-11-09 03:19:00,
2013-11-08 20:29:00,41.8,29.7,29.93,SSE,158,0.7,1.1,62,0.00,,,0.00,WUHU216HW,2013-11-09 03:29:00,
2013-11-08 20:39:00,41.6,29.5,29.93,SW,225,1.1,1.6,62,0.00,,,0.00,WUHU216HW,2013-11-09 03:39:00,
2013-11-08 20:49:00,41.4,29.3,29.93,SW,225,1.3,2.2,62,0.00,,,0.00,WUHU216HW,2013-11-09 03:49:00,
2013-11-08 20:59:00,41.4,29.3,29.93,SW,225,1.3,1.6,62,0.00,,,0.00,WUHU216HW,2013-11-09 03:59:00,
2013-11-08 21:09:00,41.6,29.5,29.94,WSW,248,1.8,1.8,62,0.00,,,0.00,WUHU216HW,2013-11-09 04:09:00,
2013-11-08 21:19:00,41.4,29.3,29.94,WSW,248,2.7,2.7,62,0.00,,,0.00,WUHU216HW,2013-11-09 04:19:00,
2013-11-08 21:29:00,41.4,29.0,29.94,NNW,338,0.4,2.5,61,0.00,,,0.00,WUHU216HW,2013-11-09 04:29:00,
2013-11-08 21:39:00,41.0,29.4,29.94,WSW,248,2.0,2.0,63,0.00,,,0.00,WUHU216HW,2013-11-09 04:39:00,
2013-11-08 21:49:00,41.0,29.4,29.95,West,270,1.3,2.2,63,0.00,,,0.00,WUHU216HW,2013-11-09 04:49:00,
2013-11-08 21:59:00,41.0,29.4,29.94,West,270,0.7,2.5,63,0.00,,,0.00,WUHU216HW,2013-11-09 04:59:00,
2013-11-08 22:09:00,40.9,28.8,29.94,West,270,2.5,3.4,62,0.00,,,0.00,WUHU216HW,2013-11-09 05:09:00,
2013-11-08 22:19:00,40.7,28.6,29.95,West,270,0.0,2.5,62,0.00,,,0.00,WUHU216HW,2013-11-09 05:19:00,
2013-11-08 22:29:00,40.3,28.7,29.95,North,0,0.0,1.8,63,0.00,,,0.00,WUHU216HW,2013-11-09 05:29:00,
2013-11-08 22:39:00,40.3,28.7,29.95,SE,135,0.7,1.8,63,0.00,,,0.00,WUHU216HW,2013-11-09 05:39:00,
2013-11-08 22:49:00,40.0,28.4,29.95,WSW,248,2.2,3.1,63,0.00,,,0.00,WUHU216HW,2013-11-09 05:49:00,
2013-11-08 22:59:00,40.0,28.4,29.96,West,270,3.6,4.7,63,0.00,,,0.00,WUHU216HW,2013-11-09 05:59:00,
2013-11-08 23:09:00,40.0,29.1,29.96,West,270,2.2,4.0,65,0.00,,,0.00,WUHU216HW,2013-11-09 06:09:00,
2013-11-08 23:19:00,40.0,28.7,29.96,WSW,248,2.5,4.7,64,0.00,,,0.00,WUHU216HW,2013-11-09 06:19:00,
2013-11-08 23:29:00,39.8,28.5,29.96,WSW,248,2.7,3.8,64,0.00,,,0.00,WUHU216HW,2013-11-09 06:29:00,
2013-11-08 23:39:00,39.6,28.7,29.96,SW,225,4.5,6.3,65,0.00,,,0.00,WUHU216HW,2013-11-09 06:39:00,
2013-11-08 23:49:00,39.6,28.7,29.97,WNW,293,1.3,6.9,65,0.00,,,0.00,WUHU216HW,2013-11-09 06:49:00,
2013-11-08 23:59:00,39.2,28.4,29.97,SSE,158,0.2,2.5,65,0.00,,,0.00,WUHU216HW,2013-11-09 06:59:00,